Location: Charbonni�res
(45.9952°N, 2.9982°E)
Time: 18:03:47
(UTC+00:00)

Cosmos 1242 Rocket - Pass Details

Date: 29 November 2020
Orbit: 447 x 485 km, 81.2° (Epoch: 22 January)

Event Time Altitude Azimuth Distance (km) Brightness Sun altitude
Rises 06:17:56 0° 355° (N) 2,549 5.9 -8.5°
Reaches altitude 10° 06:20:07 10° 2° (N) 1,670 5.1 -8.2°
Maximum altitude 06:23:36 42° 75° (ENE) 703 3.9 -7.6°
Drops below altitude 10° 06:27:06 10° 148° (SSE) 1,666 6.3 -7.0°
Sets 06:29:16 0° 155° (SSE) 2,543 7.1 -6.7°
